Taurus 1
1 44530U 19059C   25033.84566901  .00015626  00000-0  30767-2 0  9997
2 44530  98.5905 167.6359 0009498  67.0485 293.1716 14.62607312285399
Duchifat 3
1 44854U 19089C   25033.47895776  .00050684  00000-0  15439-2 0  9995
2 44854  36.9490  75.2480 0010464 217.1604 142.8425 15.32941921283411
TO-108
1 44881U 19093C   25033.78055705  .00002406  00000-0  28745-3 0  9998
2 44881  97.8054 112.0562 0012684 289.7547  70.2300 14.85082788277256
FloripaSat 1
1 44885U 19093G   25033.77953297  .00012512  00000-0  11211-2 0  9992
2 44885  97.8226 121.3230 0010033 269.0556  90.9515 14.95902229277779
RS-44
1 44909U 19096E   25033.27590414  .00000032  00000-0  88653-4 0  9995
2 44909  82.5243 311.8810 0216468 233.1143 124.9947 12.79738089238405
UPMSat 2
1 46276U 20061E   25033.60388291  .00055474  00000-0  93141-3 0  9990
2 46276  97.2644 105.2907 0000964  53.0565 307.0776 15.51613970245678
AmicalSat
1 46287U 20061R   25010.85863821  .11283921  24654-5  56408-3 0  9994
2 46287  97.2840  89.8720 0009935 281.1985  78.8199 16.41970930241877
SALSAT
1 46495U 20068K   25033.41000233  .00015898  00000-0  74901-3 0  9995
2 46495  97.8473   5.9612 0010453 237.3572 122.6654 15.19558700239194
CubeSX-Sirius-HSE
1 47951U 21022V   25033.83582872  .00085839  00000-0  14916-2 0  9995
2 47951  97.4353 300.7236 0010989  47.9538 312.2646 15.50454702213972
CubeSX-HSE
1 47952U 21022W   25033.81961690  .00092329  00000-0  15795-2 0  9991
2 47952  97.4349 300.8769 0010759  46.1016 314.1122 15.50874639213983
KSU-Cubesat
1 47954U 21022Y   25033.71174053  .00221172  00000-0  20007-2 0  9993
2 47954  97.4330 304.4906 0008802  54.0824 306.1253 15.67354816213927
GRBAlpha
1 47959U 21022AD  25033.78029680  .00092025  00000-0  15811-2 0  9990
2 47959  97.4344 300.9999 0010950  47.8044 312.4135 15.50751610212801
Orbicraft-Zorkiy
1 47960U 21022AE  25033.79190786  .00150058  00000-0  18184-2 0  9996
2 47960  97.4341 303.8979 0009433  48.1599 312.0461 15.60095134213658
TUBIN
1 48900U 21059X   25033.78836877  .00049274  00000-0  97995-3 0  9993
2 48900  97.6652 194.1378 0005278 345.6284  14.4814 15.46783557200358
LEDSAT
1 49069U 21073D   25033.78244999  .00054929  00000-0  12295-2 0  9996
2 49069  97.4056 111.6804 0013096 179.6255 180.5005 15.43194639191775
CUTE
1 49263U 21088D   25033.13508522  .00065821  00000-0  16320-2 0  9998
2 49263  97.4663 106.1872 0009045 351.2297   8.8789 15.40107426184769
TeikyoSat 4
1 49396U 21102B   25033.54838059  .00004108  00000-0  28041-3 0  9993
2 49396  97.4288  76.5051 0012105 202.9292 157.1396 15.06671400177412
Z-Sat
1 49399U 21102E   25033.81978626  .00008356  00000-0  48065-3 0  9998
2 49399  97.3999  79.1500 0018736 178.6946 181.4337 15.12559539177805
KOSEN 1
1 49402U 21102H   25033.07175570  .00015059  00000-0  75247-3 0  9998
2 49402  97.3914  80.9611 0017236 159.9288 200.2627 15.17423979177934
HO-113
1 50466U 21131B   25033.80322691  .00001431  00000-0  46365-3 0  9999
2 50466  98.5150 123.8037 0004807 146.4565 213.6929 14.40505545163190
IRIS-A
1 51044U 22002BN  25033.64454276  .00088472  00000-0  12701-2 0  9993
2 51044  97.3470 108.2726 0003679 285.4886  74.5963 15.55811960169920
Foresail-1
1 52766U 22057AL  25033.35056458  .00085984  00000-0  12495-2 0  9998
2 52766  97.5974 174.0623 0005893  14.9253 345.2173 15.55477209149915
SNUGLITE 2
1 52899U 22065F   25033.61460259  .00003164  00000-0  63237-3 0  9992
2 52899  98.1463 177.0314 0008138 145.6978 214.4751 14.62552268137926
IO-117
1 53106U 22080B   25027.56054429 -.00000003  00000-0  00000+0 0  9991
2 53106  70.1423 114.5706 0008128  54.9517 305.1905  6.42557612 59687
FO-118
1 54684U 22167C   25033.81544937  .00329212  00000-0  20126-2 0  9991
2 54684  97.6111 196.0974 0006088 338.4615  21.6393 15.76415568119937
SO-120
1 56992U 23084BU  25033.80187056  .00973898  42147-3  27237-2 0  9994
2 56992  97.5256 168.4964 0011278 293.5289  66.4800 15.93597172 91836
UmKA 1 (RS40S)
1 57172U 23091G   25033.79720168  .00010909  00000-0  62134-3 0  9998
2 57172  97.5787  89.9164 0016407  55.2898 304.9876 15.12877790 88290
CubeBel-2 (EU11S)
1 57175U 23091K   25033.84043392  .00017065  00000-0  90027-3 0  9996
2 57175  97.5785  90.4617 0014321  64.3256 295.9453 15.15530540 88330
VERONIKA
1 58261U 23174F   25033.76737320  .00073254  00000-0  16519-2 0  9992
2 58261  97.4307 115.1943 0007623 143.9834 216.1928 15.42950985 68975
KAFASAT
1 58317U 23174BP  25033.53542437  .00185679  00000-0  22778-2 0  9991
2 58317  97.4202 117.9010 0003338 114.9608 245.1996 15.59694302 69156
ENSO
1 58470U 23185J   25033.82571464  .00050894  00000-0  12434-2 0  9995
2 58470  97.3924 106.2537 0008903 174.9552 185.1786 15.40627646 65421
EIRSAT-1
1 58472U 23185L   25033.80966967  .00066112  00000-0  14271-2 0  9992
2 58472  97.3919 106.8450 0008017 175.8363 184.2954 15.44279643 65468
SONATE-2
1 59112U 24043Q   25033.32341782  .00029845  00000-0  10493-2 0  9991
2 59112  97.4964 162.6838 0011754 204.3712 155.6973 15.29249373 50848
MO-122
1 60209U 24125G   25033.03467321  .00030632  00000-0  10646-2 0  9993
2 60209  97.2944 246.5059 0020313 232.8360 127.1026 15.29485623 32412
GRBBeta
1 60237U 24128C   25033.49475557  .00009563  00000-0  75484-3 0  9998
2 60237  61.9931 162.0576 0038560  27.6680 332.6450 15.00682472 31111
Curium One
1 60242U 24128H   25033.49129324  .00016214  00000-0  12286-2 0  9993
2 60242  61.9834 161.8075 0038699  21.7144 338.5576 15.01854068 31121
ROBUSTA-3A
1 60243U 24128J   25033.52632584  .00015040  00000-0  11537-2 0  9999
2 60243  61.9900 162.1328 0036839  19.9651 340.2870 15.01490138 31128
CatSat
1 60246U 24125J   25033.11126668  .00020530  00000-0  76229-3 0  9995
2 60246  97.2738 247.0009 0045593 185.5822 174.4915 15.26596994 30511
AO-123
1 61781U 24199AY  25033.85170971  .00015781  00000-0  62463-3 0  9995
2 61781  97.3744 263.2707 0015414 289.4816  70.4757 15.25418182 57547
POEM 4 (BGS ARPIT)
1 62461U 24253C   25033.61817909  .00139231  00000-0  76172-3 0  9994
2 62461  55.2201  93.9387 0011022  18.5352 341.6096 15.78913852  5334
